Location: Six Mile Lake
(44.9000°N, 79.7170°W)
Time: 06:40:18
(UTC-04:00)

O/OREOS (USA 219) - Pass Details

Date: 08 July 2022
Orbit: 621 x 646 km, 72.0° (Epoch: 22 May)

Event Time Altitude Azimuth Distance (km) Brightness Sun altitude
Rises 23:34:35 0° 340° (NNW) 2,967 ? -18.2°
Reaches altitude 10° 23:36:57 10° 346° (NNW) 2,054 ? -18.4°
Maximum altitude 23:41:25 48° 61° (ENE) 849 ? -18.8°
Enters shadow 23:43:06 32° 114° (ESE) 1,102 ? -18.9°
